TimeEST,TemperatureF,Dew PointF,Humidity,Sea Level PressureIn,VisibilityMPH,Wind Direction,Wind SpeedMPH,Gust SpeedMPH,PrecipitationIn,Events,Conditions,WindDirDegrees,DateUTC
12:53 AM,19.0,14.0,81,30.44,10.0,South,12.7,-,N/A,,Partly Cloudy,190,2013-11-25 05:53:00
1:53 AM,19.0,12.9,77,30.43,10.0,South,11.5,-,N/A,,Partly Cloudy,190,2013-11-25 06:53:00
2:53 AM,19.9,10.0,65,30.43,10.0,SSW,16.1,-,N/A,,Partly Cloudy,210,2013-11-25 07:53:00
3:53 AM,19.9,9.0,62,30.40,10.0,SSW,15.0,-,N/A,,Partly Cloudy,210,2013-11-25 08:53:00
4:53 AM,19.0,10.0,68,30.38,10.0,South,15.0,-,N/A,,Partly Cloudy,190,2013-11-25 09:53:00
5:53 AM,19.9,10.0,65,30.37,10.0,SSW,17.3,-,N/A,,Scattered Clouds,200,2013-11-25 10:53:00
6:53 AM,19.9,10.9,68,30.34,10.0,South,12.7,-,N/A,,Scattered Clouds,190,2013-11-25 11:53:00
7:53 AM,21.9,10.9,63,30.32,10.0,SSW,17.3,-,N/A,,Mostly Cloudy,200,2013-11-25 12:53:00
8:53 AM,23.0,12.0,63,30.30,10.0,South,18.4,-,N/A,,Overcast,190,2013-11-25 13:53:00
9:53 AM,24.1,12.9,62,30.30,10.0,South,19.6,-,N/A,,Overcast,190,2013-11-25 14:53:00
10:53 AM,27.0,12.9,56,30.27,10.0,SSW,18.4,23.0,N/A,,Overcast,200,2013-11-25 15:53:00
11:53 AM,28.0,12.9,53,30.24,10.0,South,21.9,-,N/A,,Overcast,190,2013-11-25 16:53:00
12:53 PM,28.9,12.9,51,30.20,10.0,SSW,21.9,26.5,N/A,,Overcast,210,2013-11-25 17:53:00
1:53 PM,30.9,14.0,50,30.17,10.0,SSW,21.9,-,N/A,,Overcast,200,2013-11-25 18:53:00
2:53 PM,30.9,12.9,47,30.15,10.0,SSW,23.0,-,N/A,,Overcast,200,2013-11-25 19:53:00
3:53 PM,30.0,14.0,51,30.15,10.0,SSW,20.7,-,N/A,,Overcast,200,2013-11-25 20:53:00
4:53 PM,30.0,14.0,51,30.14,10.0,SSW,16.1,-,N/A,,Overcast,200,2013-11-25 21:53:00
5:53 PM,30.9,14.0,50,30.13,10.0,SSW,19.6,25.3,N/A,,Overcast,200,2013-11-25 22:53:00
6:53 PM,30.0,17.1,59,30.14,9.0,SSW,19.6,-,0.00,Snow,Light Snow,210,2013-11-25 23:53:00
7:32 PM,28.4,21.2,74,30.12,2.0,SW,20.7,25.3,0.00,Snow,Light Snow,220,2013-11-26 00:32:00
7:53 PM,28.0,21.9,78,30.15,5.0,SW,12.7,-,0.00,Snow,Light Snow,220,2013-11-26 00:53:00
8:03 PM,28.4,21.2,74,30.12,7.0,SSW,15.0,-,0.00,Snow,Light Snow,210,2013-11-26 01:03:00
8:53 PM,28.9,23.0,78,30.15,10.0,SSW,21.9,-,0.00,,Overcast,210,2013-11-26 01:53:00
9:22 PM,28.4,23.0,80,30.13,10.0,SSW,18.4,-,N/A,,Overcast,200,2013-11-26 02:22:00
9:44 PM,28.4,23.0,80,30.12,10.0,SSW,15.0,24.2,N/A,,Overcast,210,2013-11-26 02:44:00
9:53 PM,28.9,23.0,78,30.15,10.0,SSW,17.3,23.0,N/A,,Overcast,210,2013-11-26 02:53:00
10:35 PM,28.4,23.0,80,30.13,10.0,SSW,15.0,-,N/A,,Overcast,210,2013-11-26 03:35:00
10:53 PM,28.9,23.0,78,30.15,10.0,SSW,13.8,-,N/A,,Overcast,210,2013-11-26 03:53:00
11:53 PM,30.0,23.0,75,30.14,10.0,SW,11.5,-,N/A,,Overcast,220,2013-11-26 04:53:00